,

(GMT )
Clinton

Weather History for CWCL - September, 2013

Change the Weather History Date:

Saturday, September 14, 2013

  Actual Average Record
Temperature  
Mean Temperature 65 °F -  
Max Temperature 85 °F 60 °F 85 °F (2013)
Min Temperature 45 °F 36 °F 32 °F (2007)
Growing Degree Days 15 (Base 50)    
Moisture  
Dew Point 38 °F    
Average Humidity 42    
Maximum Humidity 81    
Minimum Humidity 8    
Precipitation  
Precipitation 0.00 in - - ()
Sea Level Pressure  
Sea Level Pressure 29.94 in    
Wind  
Wind Speed 2 mph ()    
Max Wind Speed 7 mph    
Max Gust Speed -    
Visibility 9.0 miles    
Events      
Averages and records for this station are not official NWS values.
T = Trace of Precipitation, MM = Missing Value Source: Averaged Metar Reports

Daily Weather History Graph

Daily Weather History Graph

Search for Another Location

Airport or City:

Trip Planner

Search our weather history database for the weather conditions in past years. The results will help you decide how hot, cold, wet, or windy it might be!

Date:

Astronomy

Sep. 14, 2013 Rise Set
Actual Time 6:40 AM PDT 7:21 PM PDT
Civil Twilight 6:06 AM PDT 7:54 PM PDT
Nautical Twilight 5:26 AM PDT 8:34 PM PDT
Astronomical Twilight 4:44 AM PDT 9:16 PM PDT
Moon 4:31 PM PDT (9/14) 12:50 AM PDT (9/14)
Length of Visible Light 13h 48m
Length of Day
12h 41m
Waxing Gibbous, 73% of the Moon is Illuminated
Sep 14
Waxing Gibbous
Sep 19
Full
Sep 26
Last Quarter
Oct 4
New
Oct 11
First Quarter

Hourly Weather History & Observations

Time (PDT) Temp. Dew Point Humidity Pressure Visibility Wind Dir Wind Speed Gust Speed Precip Events Conditions
12:00 AM 55.4 °F 39.2 °F 54% 29.94 in 9.0 mi Calm Calm - N/A   Clear
1:00 AM 53.6 °F 39.2 °F 58% 29.94 in 9.0 mi Calm Calm - N/A   Clear
2:00 AM 52 °F 39 °F 51% 29.95 in 9 mi Calm Calm - -  
2:00 AM 51.8 °F 39.2 °F 62% 29.95 in 9.0 mi Calm Calm - N/A   Clear
3:00 AM 50.0 °F 39.2 °F 66% 29.95 in 9.0 mi Calm Calm - N/A   Clear
4:00 AM 50.0 °F 39.2 °F 66% 29.96 in 9.0 mi Calm Calm - N/A   Clear
5:00 AM 47 °F 39 °F 64% 29.96 in 9 mi Calm Calm - -  
5:00 AM 48.2 °F 39.2 °F 71% 29.96 in 9.0 mi Calm Calm - N/A   Clear
6:00 AM 46.4 °F 39.2 °F 76% 29.98 in 9.0 mi Calm Calm - N/A   Clear
7:00 AM 44.6 °F 39.2 °F 81% 30.01 in 9.0 mi Calm Calm - N/A   Clear
8:00 AM 53 °F 42 °F 57% 30.00 in 9 mi Calm Calm - -  
8:00 AM 53.6 °F 42.8 °F 67% 30.00 in 9.0 mi Calm Calm - N/A   Clear
9:00 AM 60.8 °F 42.8 °F 52% 29.99 in 9.0 mi East 2.3 mph - N/A   Clear
10:00 AM 66.2 °F 42.8 °F 43% 29.99 in 9.0 mi East 2.3 mph - N/A   Clear
11:00 AM 69 °F 44 °F 29% 29.99 in 9 mi ESE 3.5 mph - -  
11:00 AM 69.8 °F 44.6 °F 40% 29.99 in 9.0 mi SE 2.3 mph - N/A   Clear
12:00 PM 75.2 °F 44.6 °F 34% 29.97 in 9.0 mi SE 2.3 mph - N/A   Clear
1:00 PM 78.8 °F 42.8 °F 28% 29.95 in 9.0 mi SSE 5.8 mph - N/A   Clear
2:00 PM 81 °F 36 °F 11% 29.93 in 9 mi East 3.5 mph - -  
2:00 PM 80.6 °F 35.6 °F 20% 29.93 in 9.0 mi ENE 4.6 mph - N/A   Clear
3:00 PM 84.2 °F 32.0 °F 15% 29.91 in 9.0 mi South 6.9 mph - N/A   Clear
4:00 PM 86.0 °F 26.6 °F 12% 29.90 in 9.0 mi South 5.8 mph - N/A   Clear
5:00 PM 83 °F 31 °F 8% 29.89 in 9 mi South 6.9 mph - -  
5:00 PM 82.4 °F 30.2 °F 15% 29.89 in 9.0 mi South 6.9 mph - N/A   Clear
6:00 PM 78.8 °F 32.0 °F 18% 29.90 in 9.0 mi South 4.6 mph - N/A   Clear
7:00 PM 68.0 °F 35.6 °F 30% 29.91 in 9.0 mi SW 4.6 mph - N/A   Clear
8:00 PM 64 °F 36 °F 24% 29.91 in 9 mi SW 4.6 mph - -  
8:00 PM 64.4 °F 35.6 °F 34% 29.91 in 9.0 mi SW 3.5 mph - N/A   Clear
9:00 PM 62.6 °F 35.6 °F 37% 29.91 in 9.0 mi SW 2.3 mph - N/A   Clear
10:00 PM 59.0 °F 35.6 °F 42% 29.90 in 9.0 mi South 2.3 mph - N/A   Clear
11:00 PM 58 °F 36 °F 31% 29.90 in 9 mi SSE 2.3 mph - -  
11:00 PM 57.2 °F 35.6 °F 44% 29.90 in 9.0 mi SE 2.3 mph - N/A   Clear